{"data":{"norad_id":54062,"intl_designator":"2022-136M","name":"STARLINK-5170","alt_names":[],"object_type":"PAYLOAD","status":"ACTIVE","operator":null,"country":"US","launch_date":"2022-10-20","launch_site_code":"AFETR","launch_vehicle":null,"mission":null,"orbit_class":"UNKNOWN","rcs_meters":null,"size_class":null,"mass_kg":null,"dimensions":null,"purposes":["comms"],"wikipedia_slug":null,"has_3d_model":false,"image_url":null,"decayed_at":null,"tle_current":{"epoch":"2026-05-24T23:50:25.635264Z","epoch_age_seconds":75361,"freshness":"FRESH","line1":"1 54062U 22136M   26144.99335226 -.00001643  00000+0 -85177-4 0  9994","line2":"2 54062  53.2143   1.5492 0001114  74.3770 285.7345 15.08844844198360","mean_motion":15.08844844,"eccentricity":0.0001114,"inclination_deg":53.2143,"raan_deg":1.5492,"arg_perigee_deg":74.377,"mean_anomaly_deg":285.7345,"bstar":-8.5177e-5,"rev_number":19836,"period_min":95.437248284755,"perigee_km":538.95793260766,"apogee_km":540.49923305952,"semimajor_km":6917.8655828336,"source":"CELESTRAK","updated_at":"2026-05-25T13:38:17.649189Z"}}}